Regional Weather Roundup
Issued by NWS

Home | Current Version | Previous Version | Graphics & Text | Print | Product List | Glossary On
Versions: 1 2 3 4 5 6 7 8 9 10 11 12 13 14 15 16 17 18 19 20 21 22 23 24 25 26 27 28 29 30 31 32 33 34 35 36 37 38 39 40 41 42 43 44 45 46 47 48 49 50
000
ASUS43 KMKX 051120
RWRWI

WISCONSIN REGIONAL WEATHER ROUNDUP
NATIONAL WEATHER SERVICE MILWAUKEE/SULLIVAN WI
500 AM CST THU MAR 05 2015

NOTE: "FAIR" INDICATES FEW OR NO CLOUDS BELOW 12,000 FEET WITH NO
SIGNIFICANT WEATHER AND/OR OBSTRUCTIONS TO VISIBILITY.

WIZ001-002-006>008-014>016-023>028-051200-
NORTHWEST WISCONSIN

CITY           SKY/WX    TMP DP  RH WIND       PRES   REMARKS
SUPERIOR ARPT  PTCLDY   -14 -19  76 SW7       30.43R WCI -30
ASHLAND        CLEAR    -10 -16  74 SW6       30.39R WCI -23
HAYWARD        CLEAR    -25 -30  78 CALM      30.36R
SIREN          CLEAR    -20 -26  73 CALM      30.42R
CUMBERLAND     CLEAR    -17 -22  76 CALM      30.38R
RICE LAKE      CLEAR    -21 -28  71 CALM      30.42R
CHETEK         CLEAR    -17 -22  78 CALM      30.41R
LADYSMITH      CLEAR    -20 -26  72 CALM      30.38R
EAU CLAIRE     FAIR      -9 -17  68 CALM      30.41S
MENOMONIE      CLEAR     -6 -15  67 W3        30.43R
NEW RICHMOND   CLEAR    -16 -21  76 CALM      30.43R
OSCEOLA        CLEAR    -16 -22  77 CALM      30.47R
$$

WIZ003>005-009-010-017-018-051200-
NORTH CENTRAL WISCONSIN

CITY           SKY/WX    TMP DP  RH WIND       PRES   REMARKS
MANITOWISH WTR CLEAR    -19 -24  76 CALM      30.27S
ARBOR VITAE    CLEAR    -17 -23  73 CALM      30.28R
WOODRUFF       CLEAR    -17 -23  73 CALM      30.28R
RHINELANDER    CLEAR    -19 -25  73 W3        30.28R
EAGLE RIVER    PTCLDY   -17 -23  71 CALM      30.26S
LAND O LAKES   MOCLDY   -13 -19  76 CALM      30.26S
PHILLIPS       CLEAR    -23 -28  79 CALM      30.32R
TOMAHAWK       CLEAR    -22 -28  72 CALM      30.31R
MEDFORD        CLEAR    -15 -19  80 NW3       30.32R
MERRILL        CLEAR    -19 -25  75 CALM      30.33R
$$

WIZ029-030-035-036-043>047-051200-
CENTRAL WISCONSIN

CITY           SKY/WX    TMP DP  RH WIND       PRES   REMARKS
WAUSAU         CLEAR     -8 -16  67 NW8       30.33R WCI -24
MOSINEE        CLEAR     -9 -17  70 NW5       30.35S WCI -21
MARSHFIELD     CLEAR     -9 -17  68 NW6       30.35R WCI -22
STEVENS POINT  CLEAR    -16 -21  76 CALM      30.37R
WAUPACA        CLEAR     -3 -13  63 W3        30.39R
WAUTOMA        CLEAR    -13 -19  75 CALM      30.40R
WISC RAPIDS    CLEAR    -11 -18  71 CALM      30.39R
CAMP DOUGLAS   CLEAR     -7 -12  80 VRB5      30.40R WCI -18
$$

WIZ011>013-019>022-031-037>040-048>050-051200-
NORTHEAST WISCONSIN

CITY           SKY/WX    TMP DP  RH WIND       PRES   REMARKS
ANTIGO         CLEAR    -18 -22  80 CALM      30.30R
SHAWANO        CLEAR     -5 -13  67 CALM      30.38R
OCONTO         CLEAR     -9 -14  77 W5        30.39R WCI -20
STURGEON BAY   CLEAR     -4 -13  65 CALM      30.38R
GREEN BAY      CLEAR     -6 -14  68 NW8       30.38R WCI -21
MANITOWOC      CLEAR     -3 -11  68 NW3       30.39R
APPLETON       NOT AVBL
CLINTONVILLE   CLEAR     -6 -13  71 NW6       30.38R WCI -18
OSHKOSH        CLEAR     -2 -12  62 W5        30.37S WCI -12
$$

WIZ032>034-041-042-053>061-051200-
SOUTHWEST WISCONSIN

CITY           SKY/WX    TMP DP  RH WIND       PRES   REMARKS
LA CROSSE      CLEAR     -3 -11  68 N3        30.45R
SPARTA         CLEAR    -12 -17  79 CALM      30.43R
VIROQUA        CLEAR     -4 -10  77 NW5       30.36S WCI -15
BOSCOBEL       CLEAR     -8 -14  74 CALM      30.45R
PRAIRIE DU CHI CLEAR     -3 -11  67 CALM      30.46R
PLATTEVILLE    CLEAR     -3 -10  74 W5        30.39R WCI -14
$$

WIZ056-057-062-063-064-067-068-051200-
SOUTH CENTRAL WISCONSIN

CITY           SKY/WX    TMP DP  RH WIND       PRES   REMARKS
REEDSBURG      CLEAR     -4 -11  71 NW3       30.40R
BARABOO/DELLS  CLEAR     -3 -12  65 CALM      30.39R
LONE ROCK      CLEAR     -5 -10  79 CALM      30.43R
MINERAL POINT  CLEAR      0  -9  65 NW5       30.36R WCI -10
MADISON        CLEAR     -4 -12  68 NW3       30.39R
MIDDLETON      CLEAR     -1 -11  60 NW5       30.39R WCI -11
WATERTOWN      CLEAR      0  -9  65 N5        30.38R WCI -10
MONROE         CLEAR      1  -6  71 NW7       30.36R WCI -11
JANESVILLE     CLEAR      0  -6  78 CALM      30.38R
$$

WIZ051-052-058>065-066-070>072-051200-
SOUTHEAST WISCONSIN

CITY           SKY/WX    TMP DP  RH WIND       PRES   REMARKS
MILWAUKEE      PTCLDY     5 -10  50 NW8       30.38R WCI  -8
WAUKESHA       CLEAR      0 -11  60 NW3       30.37R
MILWAUKEE/TIMM CLEAR      3 -11  51 NW7       30.40R WCI  -9
RACINE         CLEAR      3 -10  54 NW7       30.39R WCI  -9
BURLINGTON     CLEAR    -10 -17  69 NW5       30.38R WCI -21
KENOSHA        CLEAR     -6 -14  68 NW6       30.37R WCI -19
FOND DU LAC    FLURRIES  -2 -12  62 NW6       30.38R WCI -14
SHEBOYGAN      CLEAR     -1 -12  59 NW6       30.37S WCI -13
WEST BEND      CLEAR      0 -11  60 NW5       30.37R WCI -10
JUNEAU         CLEAR     -3 -11  66 NW3       30.38S
$$

LSZ147-162-051200-
LAKE SUPERIOR

STATION/POSITION TIME  TEMP    WIND        PRES    WAVE
                       AIR SEA DIR/SP/G            HT/PER
                 (UTC) (F)     (DEG/KT/KT) (MB)    (FT/S)
DEVILS ISLAND    1100    4     280/  7/ 10 1030.1R
PORT WING        1040   -8     200/  7/ 10 1029.1S
SAXON HARBOR     1000   -7     190/  7/ 10 1028.8R
$$

LMZ867-665-643>646-051200-
LAKE MICHIGAN

STATION/POSITION TIME  TEMP    WIND        PRES    WAVE
                       AIR SEA DIR/SP/G            HT/PER
                 (UTC) (F)     (DEG/KT/KT) (MB)    (FT/S)
NORTHPORT PIER   1014   -2     280/  7/ 12 1028.1R
KEWAUNEE LAKESHO 1100   -4     300/  7/  8 1027.7R
SHEBOYGAN LAKESH 1100    3     310/  9/ 12 1030.8R
PORT WASHINGTON  1000    4     310/  7/  8 1029.5
MILWAUKEE LAKESH 1100    5     320/  8/ 11   N/A
KENOSHA   LAKESH 1100    4     300/  9/ 11 1028.1S
$$

TC  - TEMPERATURE IN CELSIUS
VSB - VISIBILITY IN STATUTE MILES
WCI - WIND CHILL INDEX
HX  - HEAT INDEX




USA.gov is the U.S. government's official web portal to all federal, state and local government web resources and services.